Home   Weather   Township of Lausanne   Past weeks
Flag for USA

Past Weather in Township of Lausanne, Pennsylvania, USA — Yesterday and Last 2 Weeks

Now
55 °F

Light rain. Overcast.


Feels Like: 55 °F
Forecast: 66 / 55 °F
Wind: 3 mph from East

Location: Barre - Scranton - Wilkes-Barre / Scranton International Airport
Current Time: Sep 30, 2020 at 5:05:53 am
Latest Report: Sep 30, 2020 at 3:54 am
Visibility: 10 mi
Pressure29.52 "Hg
Humidity: 93%
Dew Point: 53 °F
Location of Township of LausanneLocation

Past Weather in Township of Lausanne — Graph

°F

Township of Lausanne Temperature Yesterday

Maximum temperature yesterday: 74 °F (at 9:54 am)
Minimum temperature yesterday: 57 °F (at 10:39 pm)
Average temperature yesterday: 65 °F

High & Low Weather Summary for the Past Weeks

 TemperatureHumidityPressure
High82 °F (Sep 23, 3:54 pm)97% (Sep 26, 10:43 pm)30.62 "Hg (Sep 26, 10:43 pm)
Low37 °F (Sep 21, 5:54 am)21% (Sep 19, 3:54 pm)29.52 "Hg (Sep 30, 3:54 am)
Average61 °F69%30.09 "Hg
* Reported Sep 15 3:54 am — Sep 30 3:54 am, Township of Lausanne. Weather by CustomWeather, © 2020

Note: Actual official high and low records may vary slightly from our data, if they occured in-between our weather recording intervals... More about our weather records

Township of Lausanne Weather History for the Previous 24 Hours

Scroll right to see more
 ConditionsComfort  
Time TempWeatherWind HumidityBarometerVisibility
3:54 am
Wed, Sep 30
55 °FLight rain. Overcast.3 mph93%29.52 "Hg10 mi
2:54 am56 °FRain. Fog.3 mph90%29.59 "Hg6 mi
2:25 am56 °FHeavy rain. Fog.10 mph93%29.66 "Hg3 mi
2:18 am56 °FHeavy rain. Fog.10 mph93%29.66 "Hg2 mi
1:54 am56 °FRain. Fog.12 mph93%29.62 "Hg3 mi
1:24 am56 °FRain. Fog.7 mph93%29.64 "Hg4 mi
12:54 am57 °FRain. Fog.7 mph90%29.63 "Hg4 mi
11:54 pm
Tue, Sep 29
57 °FRain. Fog.6 mph93%29.65 "Hg4 mi
11:22 pm57 °FHeavy rain. Fog.5 mph93%29.70 "Hg2 mi
11:11 pm57 °FHeavy rain. Fog.No wind93%29.70 "Hg1 mi
10:54 pm57 °FHeavy rain. Fog.3 mph93%29.68 "Hg1 mi
10:39 pm57 °FHeavy rain. Fog.5 mph93%29.71 "Hg2 mi
10:13 pm58 °FRain. Fog.6 mph90%29.72 "Hg4 mi
8:54 pm60 °FOvercast.3 mph80%29.75 "Hg10 mi
7:54 pm60 °FOvercast.5 mph80%29.76 "Hg10 mi
6:54 pm61 °FOvercast.No wind83%29.78 "Hg10 mi
5:54 pm61 °FOvercast.6 mph81%29.80 "Hg10 mi
4:54 pm62 °FOvercast.5 mph80%29.81 "Hg10 mi
4:17 pm62 °FOvercast.No wind80%29.84 "Hg10 mi
4:03 pm61 °FOvercast.No wind87%29.84 "Hg10 mi
3:54 pm61 °FOvercast.5 mph83%29.82 "Hg10 mi
3:32 pm60 °FMore clouds than sun.9 mph86%29.85 "Hg10 mi
2:54 pm63 °FLight rain. Overcast.9 mph87%29.82 "Hg10 mi
1:54 pm65 °FOvercast.3 mph85%29.82 "Hg10 mi
1:14 pm65 °FLight rain. Mostly cloudy.6 mph85%29.86 "Hg10 mi
12:54 pm65 °FLight rain. Overcast.3 mph85%29.84 "Hg5 mi
12:01 pm70 °FLight rain. Mostly cloudy.10 mph79%29.85 "Hg10 mi
10:54 am74 °FMore clouds than sun.9 mph71%29.82 "Hg10 mi
9:54 am74 °FOvercast.10 mph71%29.81 "Hg10 mi
8:54 am73 °FOvercast.7 mph74%29.82 "Hg10 mi
7:54 am71 °FOvercast.6 mph76%29.82 "Hg10 mi
6:54 am71 °FPassing clouds.5 mph76%29.82 "Hg10 mi
6:27 am71 °FPassing clouds.5 mph76%29.84 "Hg10 mi
6:01 am71 °FMostly cloudy.6 mph76%29.83 "Hg10 mi
Weather by CustomWeather, © 2020

See weather overview